Date String (YYYY-MM-DD hh:mm:ss) UTC,Instrument flags,Ambient pressure (hPa),Sample flow (lpm),Bypass flow (lpm),Sample temperature (°C),Ambient temperature (°C),ASC tube jacket temperature (°C),LED temperature (°C),Box temperature (°C),Sample RH (%),Span deviation,Mass concentration (μg/m³),Mass concentration (μg/m³),Mass concentration (μg/m³)
DateTimeUTC,F1_M11,P_M11,Q1_M11,Q2_M11,T1_M11,T2_M11,T3_M11,T4_M11,T5_M11,U1_M11,ZSPAN_M11,X0_M11,X2_M11,X1_M11
2022-10-31 19:00:00,,0822.9,5.00,0.00,29.9,28.7,00.0,38.6,31.7,07.7,0000.0,0007.73,0003.65,0002.94
2022-10-31 19:01:00,,0823.0,5.00,0.00,29.9,28.7,00.0,38.6,31.7,07.7,0000.0,0007.54,0003.66,0002.97
2022-10-31 19:02:00,,0823.0,5.00,0.00,29.9,28.7,00.0,38.6,31.8,07.6,0000.0,0007.81,0003.65,0002.99
2022-10-31 19:03:00,,0822.9,5.00,0.00,29.9,28.7,00.0,38.7,31.8,07.6,0000.0,0007.71,0003.62,0003.00
2022-10-31 19:04:00,,0822.8,5.00,0.00,29.9,28.8,00.0,38.7,31.8,07.6,0000.0,0007.90,0003.62,0003.02
2022-10-31 19:05:00,,0822.8,5.00,0.00,29.9,28.8,00.0,38.7,31.7,07.7,0000.0,0008.11,0003.61,0003.03
2022-10-31 19:06:00,,0822.8,4.99,0.00,30.0,28.8,00.0,38.7,31.8,07.5,0000.0,0008.17,0003.58,0003.05
2022-10-31 19:07:00,,0822.8,5.02,0.00,30.0,28.8,00.0,38.7,31.9,07.6,0000.0,0008.06,0003.55,0003.05
2022-10-31 19:08:00,,0822.8,4.98,0.00,30.0,28.8,00.0,38.7,31.9,07.7,0000.0,0008.08,0003.54,0003.07
2022-10-31 19:09:00,,0822.8,5.02,0.00,30.0,28.8,00.0,38.7,31.9,07.6,0000.0,0008.44,0003.53,0003.05
2022-10-31 19:10:00,,0822.8,4.97,0.00,30.0,28.9,00.0,38.8,31.9,07.5,0000.0,0008.52,0003.51,0003.05
2022-10-31 19:11:00,,0822.8,5.02,0.00,30.0,28.9,00.0,38.8,31.9,07.6,0000.0,0008.45,0003.49,0003.06
2022-10-31 19:12:00,,0822.7,4.98,0.00,30.1,28.9,00.0,38.8,31.9,07.3,0000.0,0008.32,0003.48,0003.07
2022-10-31 19:13:00,,0822.8,5.02,0.00,30.1,28.9,00.0,38.8,31.9,07.3,0000.0,0008.33,0003.52,0003.08
2022-10-31 19:14:00,,0822.7,4.98,0.00,30.1,28.9,00.0,38.8,31.9,07.4,0000.0,0008.62,0003.59,0003.10
2022-10-31 19:15:00,,0822.7,5.01,0.00,30.1,28.9,00.0,38.8,31.9,07.3,0000.0,0008.47,0003.59,0003.10
2022-10-31 19:16:00,,0822.7,5.00,0.00,30.1,28.9,00.0,38.9,32.0,07.2,0000.0,0008.01,0003.60,0003.11
2022-10-31 19:17:00,,0822.7,5.00,0.00,30.1,28.9,00.0,38.9,32.0,07.2,0000.0,0008.09,0003.63,0003.12
2022-10-31 19:18:00,,0822.7,5.00,0.00,30.1,28.9,00.0,38.9,32.0,07.1,0000.0,0008.41,0003.66,0003.13
2022-10-31 19:19:00,,0822.7,5.00,0.00,30.1,28.9,00.0,38.9,32.0,07.1,0000.0,0008.28,0003.65,0003.13
2022-10-31 19:20:00,,0822.7,4.98,0.00,30.2,29.0,00.0,38.9,32.0,07.1,0000.0,0007.87,0003.65,0003.14
2022-10-31 19:21:00,,0822.7,5.02,0.00,30.2,29.0,00.0,38.9,32.0,07.2,0000.0,0007.77,0003.66,0003.15
2022-10-31 19:22:00,,0822.7,5.00,0.00,30.2,29.0,00.0,38.9,32.0,07.3,0000.0,0007.83,0003.69,0003.16
2022-10-31 19:23:00,,0822.6,4.98,0.00,30.2,29.0,00.0,38.9,32.0,07.3,0000.0,0007.90,0003.68,0003.15
2022-10-31 19:24:00,,0822.7,5.02,0.00,30.2,29.0,00.0,39.0,32.0,07.2,0000.0,0007.55,0003.65,0003.14
2022-10-31 19:25:00,,0822.6,4.98,0.00,30.2,29.1,00.0,39.0,32.1,07.1,0000.0,0007.66,0003.62,0003.14
2022-10-31 19:26:00,,0822.6,5.01,0.00,30.2,29.0,00.0,39.0,32.1,07.0,0000.0,0007.96,0003.63,0003.14
2022-10-31 19:27:00,,0822.6,5.00,0.00,30.2,29.1,00.0,39.0,32.1,07.1,0000.0,0007.95,0003.63,0003.15
2022-10-31 19:28:00,,0822.6,4.99,0.00,30.3,29.1,00.0,39.0,32.1,07.0,0000.0,0007.73,0003.60,0003.15
2022-10-31 19:29:00,,0822.6,4.99,0.00,30.3,29.1,00.0,39.0,32.1,07.0,0000.0,0007.65,0003.64,0003.16
2022-10-31 19:30:00,,0822.6,5.00,0.00,30.3,29.1,00.0,39.0,32.1,06.9,0000.0,0008.44,0003.70,0003.18
2022-10-31 19:31:00,,0822.6,5.00,0.00,30.3,29.1,00.0,39.1,32.1,07.0,0000.0,0009.20,0003.72,0003.19
2022-10-31 19:32:00,,0822.6,5.01,0.00,30.3,29.1,00.0,39.1,32.1,06.9,0000.0,0009.80,0003.77,0003.20
2022-10-31 19:33:00,,0822.6,5.00,0.00,30.3,29.2,00.0,39.1,32.1,06.8,0000.0,0010.11,0003.77,0003.20
2022-10-31 19:34:00,,0822.6,4.98,0.00,30.4,29.2,00.0,39.1,32.2,06.8,0000.0,0010.15,0003.82,0003.21
2022-10-31 19:35:00,,0822.6,5.01,0.00,30.4,29.2,00.0,39.1,32.2,06.9,0000.0,0010.21,0003.85,0003.22
2022-10-31 19:36:00,,0822.5,5.00,0.00,30.4,29.2,00.0,39.1,32.2,06.9,0000.0,0009.89,0003.87,0003.22
2022-10-31 19:37:00,,0822.5,4.98,0.00,30.4,29.2,00.0,39.1,32.2,07.0,0000.0,0009.66,0003.86,0003.22
2022-10-31 19:38:00,,0822.5,5.00,0.00,30.4,29.2,00.0,39.2,32.2,06.9,0000.0,0009.61,0003.84,0003.21
2022-10-31 19:39:00,,0822.4,5.01,0.00,30.4,29.2,00.0,39.2,32.3,06.8,0000.0,0009.67,0003.87,0003.22
2022-10-31 19:40:00,,0822.4,5.01,0.00,30.4,29.3,00.0,39.2,32.2,06.8,0000.0,0009.52,0003.83,0003.22
2022-10-31 19:41:00,,0822.4,4.98,0.00,30.5,29.3,00.0,39.2,32.2,06.9,0000.0,0008.84,0003.76,0003.20
2022-10-31 19:42:00,,0822.4,5.01,0.00,30.5,29.3,00.0,39.2,32.3,06.9,0000.0,0008.11,0003.75,0003.19
2022-10-31 19:43:00,,0822.4,5.01,0.00,30.5,29.3,00.0,39.2,32.3,06.9,0000.0,0007.57,0003.75,0003.18
2022-10-31 19:44:00,,0822.4,5.01,0.00,30.5,29.3,00.0,39.2,32.3,07.0,0000.0,0007.18,0003.73,0003.18
2022-10-31 19:45:00,,0822.4,4.98,0.00,30.5,29.3,00.0,39.3,32.3,06.8,0000.0,0007.30,0003.71,0003.18
2022-10-31 19:46:00,,0822.4,5.01,0.00,30.5,29.3,00.0,39.3,32.3,06.8,0000.0,0007.26,0003.70,0003.18
2022-10-31 19:47:00,,0822.4,5.00,0.00,30.5,29.4,00.0,39.3,32.4,06.9,0000.0,0007.12,0003.68,0003.17
2022-10-31 19:48:00,,0822.4,4.98,0.00,30.5,29.4,00.0,39.3,32.4,06.8,0000.0,0008.25,0003.68,0003.17
2022-10-31 19:49:00,,0822.4,5.01,0.00,30.6,29.4,00.0,39.3,32.4,06.8,0000.0,0010.11,0003.72,0003.18
2022-10-31 19:50:00,,0822.4,5.01,0.00,30.6,29.4,00.0,39.3,32.4,06.8,0000.0,0010.29,0003.72,0003.17
2022-10-31 19:51:00,,0822.4,5.00,0.00,30.6,29.4,00.0,39.3,32.4,06.9,0000.0,0010.36,0003.73,0003.17
2022-10-31 19:52:00,,0822.4,4.99,0.00,30.6,29.5,00.0,39.4,32.4,06.8,0000.0,0010.43,0003.75,0003.18
2022-10-31 19:53:00,,0822.4,5.00,0.00,30.6,29.5,00.0,39.4,32.5,06.8,0000.0,0010.42,0003.74,0003.18
2022-10-31 19:54:00,,0822.4,4.99,0.00,30.7,29.5,00.0,39.4,32.5,06.8,0000.0,0010.34,0003.73,0003.18
2022-10-31 19:55:00,,0822.4,5.01,0.00,30.7,29.5,00.0,39.4,32.5,06.8,0000.0,0010.28,0003.74,0003.19
2022-10-31 19:56:00,,0822.3,5.01,0.00,30.7,29.3,00.0,39.4,32.6,06.8,0000.0,0010.14,0003.73,0003.18
2022-10-31 19:57:00,,0822.3,5.00,0.00,30.8,29.1,00.0,39.4,32.6,06.7,0000.0,0010.68,0003.71,0003.18
2022-10-31 19:58:00,,0822.2,5.00,0.00,30.8,27.8,00.0,39.3,32.5,06.7,0000.0,0010.84,0003.72,0003.18
2022-10-31 19:59:00,,0822.2,5.02,0.00,30.7,26.6,00.0,39.3,32.2,06.7,0000.0,0009.78,0003.72,0003.19
